Time,TemperatureF,DewpointF,PressureIn,WindDirection,WindDirectionDegrees,WindSpeedMPH,WindSpeedGustMPH,Humidity,HourlyPrecipIn,Conditions,Clouds,dailyrainin,SoftwareType,DateUTC
2013-03-13 00:03:00,52.0,42.0,29.97,SW,235,1.0,1.0,68,0.00,,,0.51,,2013-03-13 04:03:00,
2013-03-13 00:13:00,52.0,42.0,29.97,SW,235,1.0,1.0,68,0.00,,,0.51,,2013-03-13 04:13:00,
2013-03-13 00:22:00,52.0,42.0,29.98,SW,221,0.0,2.0,69,0.00,,,0.51,,2013-03-13 04:22:00,
2013-03-13 00:32:00,51.0,41.0,29.98,WSW,238,0.0,1.0,69,0.00,,,0.51,,2013-03-13 04:32:00,
2013-03-13 00:43:00,51.0,41.0,29.98,WSW,238,0.0,1.0,69,0.00,,,0.51,,2013-03-13 04:43:00,
2013-03-13 00:53:00,51.0,42.0,29.99,WSW,255,1.0,2.0,70,0.00,,,0.51,,2013-03-13 04:53:00,
2013-03-13 01:02:00,50.0,41.0,29.99,WSW,238,0.0,1.0,72,0.00,,,0.51,,2013-03-13 05:02:00,
2013-03-13 01:12:00,50.0,41.0,29.99,WSW,238,0.0,1.0,72,0.00,,,0.51,,2013-03-13 05:12:00,
2013-03-13 01:22:00,50.0,41.0,30.00,SE,131,1.0,1.0,71,0.00,,,0.51,,2013-03-13 05:22:00,
2013-03-13 01:32:00,49.0,40.0,30.00,SSW,206,0.0,2.0,72,0.00,,,0.51,,2013-03-13 05:32:00,
2013-03-13 01:42:00,49.0,40.0,30.00,SSW,206,0.0,2.0,72,0.00,,,0.51,,2013-03-13 05:42:00,
2013-03-13 01:52:00,48.0,40.0,30.01,SSW,197,0.0,1.0,75,0.00,,,0.51,,2013-03-13 05:52:00,
2013-03-13 02:02:00,48.0,40.0,30.01,South,172,0.0,3.0,74,0.00,,,0.51,,2013-03-13 06:02:00,
2013-03-13 02:12:00,48.0,40.0,30.01,South,172,0.0,3.0,74,0.00,,,0.51,,2013-03-13 06:12:00,
2013-03-13 02:23:00,48.0,40.0,30.02,SSW,205,0.0,1.0,73,0.00,,,0.47,,2013-03-13 06:23:00,
2013-03-13 02:32:00,47.0,39.0,30.03,SSW,204,0.0,1.0,75,0.00,,,0.47,,2013-03-13 06:32:00,
2013-03-13 02:42:00,47.0,39.0,30.03,SSW,204,0.0,1.0,75,0.00,,,0.47,,2013-03-13 06:42:00,
2013-03-13 02:53:00,47.0,39.0,30.03,SSW,204,0.0,0.0,74,0.00,,,0.47,,2013-03-13 06:53:00,
2013-03-13 03:02:00,46.0,40.0,30.03,SSW,204,0.0,0.0,78,0.00,,,0.47,,2013-03-13 07:02:00,
2013-03-13 03:12:00,46.0,40.0,30.03,SSW,204,0.0,0.0,78,0.00,,,0.47,,2013-03-13 07:12:00,
2013-03-13 03:22:00,45.0,39.0,30.03,SSW,204,0.0,0.0,78,0.00,,,0.42,,2013-03-13 07:22:00,
2013-03-13 03:32:00,44.0,39.0,30.03,SSW,205,0.0,0.0,81,0.00,,,0.42,,2013-03-13 07:32:00,
2013-03-13 03:42:00,44.0,39.0,30.03,SSW,205,0.0,0.0,81,0.00,,,0.42,,2013-03-13 07:42:00,
2013-03-13 03:53:00,43.0,38.0,30.03,SSW,204,0.0,0.0,83,0.00,,,0.42,,2013-03-13 07:53:00,
2013-03-13 04:03:00,42.0,38.0,30.04,SSW,204,0.0,1.0,85,0.00,,,0.42,,2013-03-13 08:03:00,
2013-03-13 04:12:00,42.0,38.0,30.04,SSW,204,0.0,1.0,85,0.00,,,0.42,,2013-03-13 08:12:00,
2013-03-13 04:23:00,41.0,37.0,30.04,SSW,206,0.0,0.0,87,0.00,,,0.34,,2013-03-13 08:23:00,
2013-03-13 04:32:00,41.0,37.0,30.04,SSW,204,0.0,0.0,87,0.00,,,0.34,,2013-03-13 08:32:00,
2013-03-13 04:43:00,41.0,37.0,30.04,SSW,204,0.0,0.0,87,0.00,,,0.34,,2013-03-13 08:43:00,
2013-03-13 04:54:00,40.0,37.0,30.05,SSW,205,0.0,0.0,88,0.00,,,0.34,,2013-03-13 08:54:00,
2013-03-13 05:02:00,40.0,37.0,30.05,SSW,204,0.0,0.0,88,0.00,,,0.34,,2013-03-13 09:02:00,
2013-03-13 05:12:00,40.0,37.0,30.05,SSW,204,0.0,0.0,88,0.00,,,0.34,,2013-03-13 09:12:00,
2013-03-13 05:22:00,39.0,36.0,30.06,SSW,205,0.0,0.0,90,0.00,,,0.19,,2013-03-13 09:22:00,
2013-03-13 05:32:00,39.0,36.0,30.06,SSW,205,0.0,0.0,90,0.00,,,0.19,,2013-03-13 09:32:00,
2013-03-13 05:42:00,39.0,36.0,30.06,SSW,205,0.0,0.0,90,0.00,,,0.19,,2013-03-13 09:42:00,
2013-03-13 05:52:00,38.0,36.0,30.07,SSW,206,0.0,0.0,91,0.00,,,0.19,,2013-03-13 09:52:00,
2013-03-13 06:02:00,38.0,36.0,30.08,SSW,205,0.0,0.0,91,0.00,,,0.19,,2013-03-13 10:02:00,
2013-03-13 06:12:00,38.0,36.0,30.08,SSW,205,0.0,0.0,91,0.00,,,0.19,,2013-03-13 10:12:00,
2013-03-13 06:22:00,37.0,35.0,30.08,SSW,204,0.0,0.0,92,0.00,,,0.07,,2013-03-13 10:22:00,
2013-03-13 06:32:00,37.0,35.0,30.09,SSW,205,0.0,0.0,92,0.00,,,0.07,,2013-03-13 10:32:00,
2013-03-13 06:42:00,37.0,35.0,30.09,SSW,205,0.0,0.0,92,0.00,,,0.07,,2013-03-13 10:42:00,
2013-03-13 06:52:00,36.0,34.0,30.10,SSW,205,0.0,1.0,93,0.00,,,0.07,,2013-03-13 10:52:00,
2013-03-13 07:02:00,36.0,34.0,30.11,SSW,205,0.0,1.0,93,0.00,,,0.07,,2013-03-13 11:02:00,
2013-03-13 07:12:00,36.0,34.0,30.11,SSW,205,0.0,1.0,93,0.00,,,0.07,,2013-03-13 11:12:00,
2013-03-13 07:22:00,36.0,34.0,30.11,SSW,205,0.0,0.0,93,0.00,,,0.04,,2013-03-13 11:22:00,
2013-03-13 07:32:00,35.0,33.0,30.12,SSW,205,0.0,1.0,93,0.00,,,0.04,,2013-03-13 11:32:00,
2013-03-13 07:42:00,35.0,33.0,30.12,SSW,205,0.0,1.0,93,0.00,,,0.04,,2013-03-13 11:42:00,
2013-03-13 07:53:00,35.0,33.0,30.13,SSW,205,0.0,0.0,93,0.00,,,0.04,,2013-03-13 11:53:00,
2013-03-13 08:02:00,35.0,33.0,30.13,SSW,205,0.0,0.0,94,0.00,,,0.04,,2013-03-13 12:02:00,
2013-03-13 08:12:00,35.0,33.0,30.13,SSW,205,0.0,0.0,94,0.00,,,0.04,,2013-03-13 12:12:00,
2013-03-13 08:22:00,35.0,33.0,30.13,SSW,205,0.0,0.0,94,0.00,,,0.04,,2013-03-13 12:22:00,
2013-03-13 08:32:00,35.0,33.0,30.14,SSW,205,0.0,0.0,94,0.00,,,0.04,,2013-03-13 12:32:00,
2013-03-13 08:42:00,35.0,33.0,30.14,SSW,205,0.0,0.0,94,0.00,,,0.04,,2013-03-13 12:42:00,
2013-03-13 08:53:00,36.0,34.0,30.14,SSW,205,0.0,0.0,94,0.00,,,0.04,,2013-03-13 12:53:00,
2013-03-13 09:02:00,38.0,36.0,30.14,SSW,193,0.0,0.0,94,0.00,,,0.04,,2013-03-13 13:02:00,
2013-03-13 09:12:00,38.0,36.0,30.14,SSW,193,0.0,0.0,94,0.00,,,0.04,,2013-03-13 13:12:00,
2013-03-13 09:22:00,40.0,38.0,30.14,East,96,0.0,0.0,91,0.00,,,0.01,,2013-03-13 13:22:00,
2013-03-13 09:33:00,43.0,39.0,30.15,SSW,212,0.0,1.0,87,0.00,,,0.01,,2013-03-13 13:33:00,
2013-03-13 09:43:00,43.0,39.0,30.15,SSW,212,0.0,1.0,87,0.00,,,0.01,,2013-03-13 13:43:00,
2013-03-13 09:53:00,46.0,40.0,30.15,SSW,195,0.0,1.0,78,0.00,,,0.01,,2013-03-13 13:53:00,
2013-03-13 10:02:00,48.0,38.0,30.15,ENE,71,0.0,1.0,68,0.00,,,0.01,,2013-03-13 14:02:00,
2013-03-13 10:12:00,48.0,38.0,30.15,ENE,71,0.0,1.0,68,0.00,,,0.01,,2013-03-13 14:12:00,
2013-03-13 10:22:00,50.0,38.0,30.15,NW,323,1.0,3.0,62,0.00,,,0.00,,2013-03-13 14:22:00,
2013-03-13 10:33:00,52.0,38.0,30.14,NW,311,1.0,2.0,59,0.00,,,0.00,,2013-03-13 14:33:00,
2013-03-13 10:42:00,52.0,38.0,30.14,NW,311,1.0,2.0,59,0.00,,,0.00,,2013-03-13 14:42:00,
2013-03-13 10:53:00,54.0,37.0,30.15,NE,46,1.0,3.0,53,0.00,,,0.00,,2013-03-13 14:53:00,
2013-03-13 11:03:00,57.0,38.0,30.15,NW,307,1.0,3.0,49,0.00,,,0.00,,2013-03-13 15:03:00,
2013-03-13 11:12:00,57.0,38.0,30.15,NW,307,1.0,3.0,49,0.00,,,0.00,,2013-03-13 15:12:00,
2013-03-13 11:22:00,59.0,35.0,30.14,WNW,284,1.0,4.0,41,0.00,,,0.00,,2013-03-13 15:22:00,
2013-03-13 11:32:00,60.0,34.0,30.14,NW,325,3.0,8.0,38,0.00,,,0.00,,2013-03-13 15:32:00,
2013-03-13 11:43:00,60.0,34.0,30.14,NW,325,3.0,8.0,38,0.00,,,0.00,,2013-03-13 15:43:00,
2013-03-13 11:53:00,60.0,32.0,30.14,NW,316,3.0,9.0,34,0.00,,,0.00,,2013-03-13 15:53:00,
2013-03-13 12:03:00,61.0,31.0,30.14,WNW,294,2.0,10.0,32,0.00,,,0.00,,2013-03-13 16:03:00,
2013-03-13 12:12:00,61.0,31.0,30.14,WNW,294,2.0,10.0,32,0.00,,,0.00,,2013-03-13 16:12:00,
2013-03-13 12:22:00,62.0,33.0,30.13,SSW,210,4.0,9.0,33,0.00,,,0.00,,2013-03-13 16:22:00,
2013-03-13 12:32:00,62.0,35.0,30.12,WNW,299,3.0,8.0,37,0.00,,,0.00,,2013-03-13 16:32:00,
2013-03-13 12:42:00,62.0,35.0,30.12,WNW,299,3.0,8.0,37,0.00,,,0.00,,2013-03-13 16:42:00,
2013-03-13 12:52:00,62.0,32.0,30.11,SW,233,3.0,9.0,32,0.00,,,0.00,,2013-03-13 16:52:00,
2013-03-13 13:02:00,63.0,34.0,30.11,WSW,238,3.0,9.0,34,0.00,,,0.00,,2013-03-13 17:02:00,
2013-03-13 13:12:00,63.0,34.0,30.11,WSW,238,3.0,9.0,34,0.00,,,0.00,,2013-03-13 17:12:00,
2013-03-13 13:22:00,63.0,33.0,30.10,SW,236,2.0,16.0,32,0.00,,,0.00,,2013-03-13 17:22:00,
2013-03-13 13:32:00,63.0,32.0,30.10,SW,219,3.0,16.0,31,0.00,,,0.00,,2013-03-13 17:32:00,
2013-03-13 13:42:00,63.0,32.0,30.10,SW,219,3.0,16.0,31,0.00,,,0.00,,2013-03-13 17:42:00,
2013-03-13 13:53:00,63.0,31.0,30.09,WSW,238,4.0,8.0,30,0.00,,,0.00,,2013-03-13 17:53:00,
2013-03-13 14:02:00,64.0,32.0,30.08,NW,321,3.0,7.0,30,0.00,,,0.00,,2013-03-13 18:02:00,
2013-03-13 14:12:00,64.0,32.0,30.08,NW,321,3.0,7.0,30,0.00,,,0.00,,2013-03-13 18:12:00,
2013-03-13 14:22:00,64.0,33.0,30.07,SSW,198,3.0,7.0,31,0.00,,,0.00,,2013-03-13 18:22:00,
2013-03-13 14:33:00,64.0,31.0,30.06,SW,236,3.0,9.0,29,0.00,,,0.00,,2013-03-13 18:33:00,
2013-03-13 14:42:00,64.0,31.0,30.06,SW,236,3.0,9.0,29,0.00,,,0.00,,2013-03-13 18:42:00,
2013-03-13 14:52:00,65.0,31.0,30.05,NW,314,2.0,6.0,28,0.00,,,0.00,,2013-03-13 18:52:00,
2013-03-13 15:02:00,65.0,32.0,30.04,West,263,3.0,7.0,29,0.00,,,0.00,,2013-03-13 19:02:00,
2013-03-13 15:12:00,65.0,32.0,30.04,West,263,3.0,7.0,29,0.00,,,0.00,,2013-03-13 19:12:00,
2013-03-13 15:22:00,65.0,31.0,30.03,West,281,2.0,11.0,28,0.00,,,0.00,,2013-03-13 19:22:00,
2013-03-13 15:32:00,64.0,30.0,30.03,WSW,238,4.0,10.0,28,0.00,,,0.00,,2013-03-13 19:32:00,
2013-03-13 15:43:00,64.0,30.0,30.03,WSW,238,4.0,10.0,28,0.00,,,0.00,,2013-03-13 19:43:00,
2013-03-13 15:53:00,64.0,29.0,30.02,WSW,249,3.0,12.0,27,0.00,,,0.00,,2013-03-13 19:53:00,
2013-03-13 16:02:00,65.0,30.0,30.02,WSW,250,4.0,9.0,27,0.00,,,0.00,,2013-03-13 20:02:00,
2013-03-13 16:12:00,65.0,30.0,30.02,WSW,250,4.0,9.0,27,0.00,,,0.00,,2013-03-13 20:12:00,
2013-03-13 16:22:00,65.0,31.0,30.02,SW,229,3.0,9.0,28,0.00,,,0.00,,2013-03-13 20:22:00,
2013-03-13 16:32:00,65.0,32.0,30.01,WSW,240,3.0,7.0,29,0.00,,,0.00,,2013-03-13 20:32:00,
2013-03-13 16:42:00,65.0,32.0,30.01,WSW,240,3.0,7.0,29,0.00,,,0.00,,2013-03-13 20:42:00,
2013-03-13 16:52:00,65.0,29.0,30.01,West,275,3.0,8.0,26,0.00,,,0.00,,2013-03-13 20:52:00,
2013-03-13 17:02:00,65.0,28.0,30.01,WSW,255,3.0,12.0,25,0.00,,,0.00,,2013-03-13 21:02:00,
2013-03-13 17:12:00,65.0,28.0,30.01,WSW,255,3.0,12.0,25,0.00,,,0.00,,2013-03-13 21:12:00,
2013-03-13 17:22:00,64.0,28.0,30.01,NNW,336,3.0,8.0,26,0.00,,,0.00,,2013-03-13 21:22:00,
2013-03-13 17:33:00,63.0,29.0,30.01,West,267,3.0,8.0,27,0.00,,,0.00,,2013-03-13 21:33:00,
2013-03-13 17:42:00,63.0,29.0,30.01,West,267,3.0,8.0,27,0.00,,,0.00,,2013-03-13 21:42:00,
2013-03-13 17:52:00,62.0,29.0,30.01,West,263,1.0,6.0,29,0.00,,,0.00,,2013-03-13 21:52:00,
2013-03-13 18:02:00,62.0,29.0,30.01,WNW,302,2.0,6.0,28,0.00,,,0.00,,2013-03-13 22:02:00,
2013-03-13 18:12:00,62.0,29.0,30.01,WNW,302,2.0,6.0,28,0.00,,,0.00,,2013-03-13 22:12:00,
2013-03-13 18:22:00,61.0,27.0,30.01,NW,321,3.0,7.0,27,0.00,,,0.00,,2013-03-13 22:22:00,
2013-03-13 18:32:00,60.0,27.0,30.02,WNW,302,2.0,6.0,28,0.00,,,0.00,,2013-03-13 22:32:00,
2013-03-13 18:42:00,60.0,27.0,30.02,WNW,302,2.0,6.0,28,0.00,,,0.00,,2013-03-13 22:42:00,
2013-03-13 18:52:00,59.0,28.0,30.02,NW,311,2.0,6.0,30,0.00,,,0.00,,2013-03-13 22:52:00,
2013-03-13 19:02:00,58.0,30.0,30.03,West,281,2.0,7.0,34,0.00,,,0.00,,2013-03-13 23:02:00,
2013-03-13 19:12:00,58.0,30.0,30.03,West,281,2.0,7.0,34,0.00,,,0.00,,2013-03-13 23:12:00,
2013-03-13 19:22:00,57.0,29.0,30.03,WNW,283,1.0,5.0,34,0.00,,,0.00,,2013-03-13 23:22:00,
2013-03-13 19:32:00,56.0,29.0,30.04,West,278,1.0,6.0,35,0.00,,,0.00,,2013-03-13 23:32:00,
2013-03-13 19:42:00,56.0,29.0,30.04,West,278,1.0,6.0,35,0.00,,,0.00,,2013-03-13 23:42:00,
2013-03-13 19:52:00,55.0,29.0,30.05,WSW,257,1.0,7.0,37,0.00,,,0.00,,2013-03-13 23:52:00,
2013-03-13 20:02:00,54.0,30.0,30.06,SW,229,0.0,4.0,39,0.00,,,0.00,,2013-03-14 00:02:00,
2013-03-13 20:13:00,54.0,30.0,30.06,SW,229,0.0,4.0,39,0.00,,,0.00,,2013-03-14 00:13:00,
2013-03-13 20:22:00,53.0,31.0,30.07,SSW,212,0.0,3.0,43,0.00,,,0.00,,2013-03-14 00:22:00,
2013-03-13 20:32:00,53.0,31.0,30.07,WSW,249,1.0,4.0,43,0.00,,,0.00,,2013-03-14 00:32:00,
2013-03-13 20:42:00,53.0,31.0,30.07,WSW,249,1.0,4.0,43,0.00,,,0.00,,2013-03-14 00:42:00,
2013-03-13 20:52:00,52.0,28.0,30.08,SW,215,2.0,4.0,40,0.00,,,0.00,,2013-03-14 00:52:00,
2013-03-13 21:02:00,52.0,30.0,30.09,SE,141,1.0,5.0,42,0.00,,,0.00,,2013-03-14 01:02:00,
2013-03-13 21:12:00,52.0,30.0,30.09,SE,141,1.0,5.0,42,0.00,,,0.00,,2013-03-14 01:12:00,
2013-03-13 21:22:00,51.0,31.0,30.09,WSW,239,0.0,2.0,46,0.00,,,0.00,,2013-03-14 01:22:00,
2013-03-13 21:32:00,50.0,29.0,30.10,WSW,240,1.0,5.0,44,0.00,,,0.00,,2013-03-14 01:32:00,
2013-03-13 21:42:00,50.0,29.0,30.10,WSW,240,1.0,5.0,44,0.00,,,0.00,,2013-03-14 01:42:00,
2013-03-13 21:53:00,50.0,31.0,30.10,WSW,257,0.0,5.0,47,0.00,,,0.00,,2013-03-14 01:53:00,
2013-03-13 22:02:00,49.0,30.0,30.11,WSW,252,0.0,6.0,47,0.00,,,0.00,,2013-03-14 02:02:00,
2013-03-13 22:12:00,49.0,30.0,30.11,WSW,252,0.0,6.0,47,0.00,,,0.00,,2013-03-14 02:12:00,
2013-03-13 22:22:00,49.0,30.0,30.11,West,259,0.0,3.0,48,0.00,,,0.00,,2013-03-14 02:22:00,
2013-03-13 22:32:00,48.0,31.0,30.12,West,280,0.0,1.0,51,0.00,,,0.00,,2013-03-14 02:32:00,
2013-03-13 22:42:00,48.0,31.0,30.12,West,280,0.0,1.0,51,0.00,,,0.00,,2013-03-14 02:42:00,
2013-03-13 22:52:00,48.0,31.0,30.12,West,280,0.0,1.0,51,0.00,,,0.00,,2013-03-14 02:52:00,
2013-03-13 23:02:00,47.0,30.0,30.13,WNW,290,1.0,2.0,51,0.00,,,0.00,,2013-03-14 03:02:00,
2013-03-13 23:12:00,47.0,30.0,30.13,WNW,290,1.0,2.0,51,0.00,,,0.00,,2013-03-14 03:12:00,
2013-03-13 23:23:00,47.0,29.0,30.14,NW,313,1.0,3.0,49,0.00,,,0.00,,2013-03-14 03:23:00,
2013-03-13 23:32:00,47.0,27.0,30.15,WNW,290,1.0,3.0,46,0.00,,,0.00,,2013-03-14 03:32:00,
2013-03-13 23:42:00,47.0,27.0,30.15,WNW,290,1.0,3.0,46,0.00,,,0.00,,2013-03-14 03:42:00,
2013-03-13 23:53:00,48.0,27.0,30.16,NNW,330,2.0,5.0,43,0.00,,,0.00,,2013-03-14 03:53:00,